Flag for Germany Weather past 2 weeks in Sonneberg, Thuringia, Germany

Now
57 °F

Cool.


Feels Like: 57 °F
Forecast: 57 / 74 °F
Wind: No wind

Location: Hof Airport

Current Time: Jul 26, 2014 at 8:11:27 AM

Latest Report: Jul 26, 2014 at 7:20 AM


Visibility: 6 mi

Pressure: 29.98 "Hg

Humidity: 94%

Dew point: 55 °F

Location of SonnebergLocation

Historic Weather in Sonneberg — Graph

°F

Sonneberg temperature yesterday

Maximum temperature yesterday: 75 °F (at 3:20 PM)
Minimum temperature yesterday: 54 °F (at 2:20 AM)
Average temperature yesterday: 64 °F

Past Weeks' High & Low Weather Summary

 TemperatureHumidityPressure
High88 °F (Jul 20, 2:50 PM)94% (Jul 11, 6:20 AM)30.24 "Hg (Jul 11, 6:20 AM)
Low48 °F (Jul 13, 2:20 AM)24% (Jul 19, 5:20 PM)29.83 "Hg (Jul 13, 2:20 PM)
Average65 °F67%30.02 "Hg
* Reported Jul 11 6:20 AM — Jul 26 6:50 AM, Sonneberg, Weather by CustomWeather, © 2014

Note: Actual official high and low records may vary slightly from our data, if they occured in-between our weather recording intervals... More about our weather records

Advertising

Sonneberg weather history for previous 24 hours

 ConditionsComfort  
Time TempWeatherWind HumidityBarometerVisibility
6:50 AM
Jul 26
54 °FCool.No wind94%29.95 "HgN/A
6:20 AM54 °FCool.1 mph88%29.95 "Hg4 mi
5:50 AM54 °FCool.No wind88%29.95 "Hg6 mi
5:20 AM54 °FCool.No wind88%29.95 "HgN/A
4:50 AM55 °FCool.No wind88%29.95 "Hg5 mi
4:20 AM52 °FCool.No wind94%29.95 "Hg2 mi
3:50 AM54 °FCool.No wind94%29.95 "Hg2 mi
3:20 AM54 °FCool.No wind94%29.95 "Hg1 mi
2:50 AM54 °FCool.No wind88%29.98 "Hg1 mi
2:20 AM55 °FCool.No wind88%29.98 "Hg1 mi
1:50 AM54 °FCool.No wind94%29.98 "Hg1 mi
1:20 AM55 °FCool.No wind94%29.98 "Hg2 mi
12:50 AM57 °FCool.2 mph94%29.98 "Hg4 mi
12:20 AM57 °FCool.2 mph94%29.98 "Hg6 mi
11:50 PM
Jul 25
57 °FCool.No wind88%29.98 "Hg5 mi
11:20 PM59 °FCool.5 mph82%29.98 "HgN/A
10:50 PM61 °FCool.5 mph83%29.98 "HgN/A
10:20 PM63 °FMild.5 mph77%29.98 "HgN/A
9:50 PM63 °FMild.6 mph77%29.95 "HgN/A
9:20 PM64 °FMild.6 mph73%29.95 "HgN/A
8:50 PM66 °FMild.7 mph68%29.95 "HgN/A
8:20 PM68 °FMild.6 mph64%29.95 "HgN/A
7:50 PM70 °FSunny.7 mph60%29.95 "Hg10 mi
7:20 PM72 °FPassing clouds.8 mph57%29.95 "HgN/A
6:50 PM72 °FPassing clouds.8 mph53%29.95 "HgN/A
6:20 PM73 °FPassing clouds.7 mph53%29.92 "HgN/A
5:50 PM73 °FPassing clouds.6 mph50%29.95 "HgN/A
5:20 PM75 °FSunny.5 mph47%29.95 "Hg10 mi
4:50 PM73 °FPassing clouds.6 mph44%29.95 "HgN/A
4:20 PM75 °FPassing clouds.8 mph44%29.95 "HgN/A
3:50 PM75 °FSunny.7 mph41%29.95 "Hg10 mi
3:20 PM75 °FSunny.3 mph41%29.95 "Hg10 mi
2:20 PM72 °FBroken clouds.1 mph47%29.95 "HgN/A
1:50 PM70 °FPartly sunny.5 mph50%29.95 "HgN/A
1:20 PM73 °FScattered clouds.2 mph47%29.98 "HgN/A
12:50 PM70 °FScattered clouds.3 mph53%29.98 "HgN/A
12:20 PM72 °FScattered clouds.5 mph50%29.98 "HgN/A
11:50 AM70 °FSunny.3 mph53%29.98 "Hg10 mi
11:20 AM68 °FScattered clouds.2 mph56%29.98 "HgN/A
10:50 AM68 °FScattered clouds.2 mph56%29.98 "HgN/A
10:20 AM64 °FSunny.1 mph68%29.98 "Hg10 mi
9:50 AM63 °FPartly sunny.No wind73%29.98 "HgN/A
9:20 AM61 °FPartly sunny.2 mph77%29.98 "HgN/A
8:50 AM59 °FPartly sunny.No wind82%29.98 "HgN/A
8:20 AM59 °FPartly sunny.5 mph82%29.98 "HgN/A
Weather by CustomWeather, © 2014

See weather overviewHow to use our weather pages